This demonstration page uses our WeatherBlox Daily Observations layout. Learn more.

Left ArrowRight Arrow

Hourly Observations for January 8, 2016

Temp ( °F °C ) Dew Point ( °F °C ) Humidity (%) Winds ( mph kmh ) Pressure ( in mb ) Visibility ( mi km ) Precip ( " mm )
12:03 am 00:03 Cloudy with Light Rain 38 3.3 37 2.8 97 97 N N/A 29.88 1012 10 16 N/A
12:51 am 00:51 Cloudy with Light Rain 37 2.8 36 2.2 96 96 W 5 7 29.81 1010 10 16 N/A
1:04 am 01:04 Cloudy with Light Rain 37 2.8 37 2.8 100 100 W 3 6 29.88 1012 4 6 0.01 0.25
1:30 am 01:30 Cloudy with Light Rain 37 2.8 36 2.2 96 96 NW 9 15 29.88 1012 8 13 0.03 0.76
1:51 am 01:51 Cloudy with Light Rain 36 2.2 35 1.7 97 97 NW 8 13 29.82 1010 4 6 0.04 1.02
2:40 am 02:40 Cloudy 35 1.7 34 1.1 96 96 WNW 3 6 29.91 1013 10 16 0.03 0.76
2:51 am 02:51 Cloudy with Light Rain 35 1.7 34 1.1 96 96 NW 5 7 29.80 1009 10 16 0.03 0.76
3:51 am 03:51 Clear 34 1.1 33 0.6 97 97 SW 5 7 29.82 1010 10 16 N/A
4:51 am 04:51 Clear 32 undefined 31 -0.6 96 96 N N/A 29.82 1010 10 16 N/A
5:03 am 05:03 Partly Cloudy 32 undefined 32 undefined 100 100 ESE 3 6 29.94 1014 10 16 N/A
5:12 am 05:12 Mostly Cloudy 33 0.6 33 0.6 100 100 SSE 5 7 29.91 1013 9 14 N/A
5:18 am 05:18 Cloudy with Mist and Fog 33 0.6 33 0.6 100 100 SE 3 6 29.91 1013 2 3 N/A
5:27 am 05:27 Mostly Cloudy with Fog 33 0.6 33 0.6 100 100 N N/A 29.91 1013 1 1 N/A
5:51 am 05:51 Mostly Cloudy with Fog 34 1.1 34 1.1 100 100 E 5 7 29.83 1010 0 0 N/A
6:07 am 06:07 Cloudy with Mist and Fog 34 1.1 34 1.1 100 100 E 3 6 29.91 1013 1 2 N/A
6:18 am 06:18 Cloudy with Mist and Fog 34 1.1 34 1.1 100 100 E 3 6 29.91 1013 2 3 N/A
6:26 am 06:26 Cloudy 34 1.1 34 1.1 100 100 N N/A 29.91 1013 9 14 N/A
6:35 am 06:35 Cloudy 35 1.7 34 1.1 96 96 N N/A 29.91 1013 10 16 N/A
6:51 am 06:51 Cloudy with Light Rain 35 1.7 34 1.1 96 96 ENE 5 7 29.85 1011 7 11 N/A
7:51 am 07:51 Cloudy 35 1.7 35 1.7 100 100 ENE 5 7 29.87 1012 10 16 0.01 0.25
8:22 am 08:22 Cloudy with Light Rain 35 1.7 35 1.7 100 100 NW 9 15 29.97 1015 3 5 0.01 0.25
8:26 am 08:26 Cloudy with Light Snow 34 1.1 33 0.6 97 97 NW 8 13 30.00 1016 2 3 0.01 0.25
8:34 am 08:34 Cloudy with Light Snow 33 0.6 33 0.6 100 100 NW 6 9 30.03 1017 1 2 0.02 0.51
8:42 am 08:42 Cloudy with Light Snow 34 1.1 33 0.6 97 97 WNW 5 7 30.03 1017 3 5 0.03 0.76
8:51 am 08:51 Cloudy with Rain 34 1.1 33 0.6 97 97 W 5 7 29.91 1013 3 4 0.03 0.76
8:59 am 08:59 Cloudy with Light Snow 33 0.6 33 0.6 100 100 W 3 6 30.03 1017 2 2 0.01 0.25
9:03 am 09:03 Cloudy with Light Rain 34 1.1 33 0.6 97 97 W 3 6 30.03 1017 3 5 0.02 0.51
9:51 am 09:51 Cloudy with Rain 35 1.7 34 1.1 96 96 NNW 3 6 29.94 1014 4 6 0.02 0.51
9:58 am 09:58 Cloudy with Rain 35 1.7 33 0.6 93 93 NNE 7 11 30.03 1017 2 3 0.02 0.51
10:08 am 10:08 Cloudy with Light Rain 35 1.7 34 1.1 96 96 NNE 3 6 30.03 1017 5 8 0.03 0.76
10:27 am 10:27 Cloudy 36 2.2 35 1.7 97 97 N N/A 30.03 1017 10 16 0.03 0.76
10:36 am 10:36 Cloudy 37 2.8 35 1.7 93 93 N N/A 30.03 1017 10 16 0.03 0.76
10:51 am 10:51 Cloudy 37 2.8 35 1.7 93 93 N N/A 29.93 1014 10 16 0.03 0.76
11:43 am 11:43 Cloudy with Light Rain 39 3.9 35 1.7 86 86 VRB 5 7 29.97 1015 10 16 N/A
11:51 am 11:51 Cloudy with Light Rain 40 4.4 36 2.2 86 86 WSW 5 7 29.91 1013 10 16 N/A
12:27 pm 12:27 Cloudy with Light Rain 40 4.4 36 2.2 86 86 W 6 9 29.97 1015 10 16 N/A
12:51 pm 12:51 Cloudy with Light Rain 40 4.4 36 2.2 86 86 NW 6 9 29.89 1012 4 6 0.01 0.25
1:38 pm 13:38 Cloudy 41 5 36 2.2 82 82 W 5 7 29.94 1014 10 16 N/A
1:51 pm 13:51 Cloudy 42 5.6 36 2.2 79 79 WNW 8 13 29.88 1012 10 16 N/A
2:42 pm 14:42 Cloudy with Light Rain 40 4.4 38 3.3 93 93 NNW 17 28 29.97 1015 7 11 0.03 0.76
2:51 pm 14:51 Cloudy with Light Rain 39 3.9 37 2.8 93 93 NNW 15 24 29.91 1013 8 13 0.03 0.76
3:16 pm 15:16 Mostly Cloudy 41 5 38 3.3 89 89 NW 15 24 29.97 1015 10 16 N/A
3:26 pm 15:26 Mostly Cloudy 42 5.6 37 2.8 82 82 NW 14 22 29.97 1015 10 16 N/A
3:51 pm 15:51 Mostly Cloudy 40 4.4 36 2.2 86 86 NW 17 28 29.92 1013 10 16 N/A
4:51 pm 16:51 Cloudy 41 5 36 2.2 82 82 NW 16 26 29.95 1014 10 16 N/A
5:51 pm 17:51 Clear 39 3.9 34 1.1 82 82 NNW 9 15 29.97 1015 10 16 N/A
6:51 pm 18:51 Mostly Cloudy 38 3.3 34 1.1 86 86 W 5 7 29.99 1016 10 16 N/A
7:51 pm 19:51 Mostly Cloudy 38 3.3 35 1.7 89 89 WNW 5 7 30.01 1016 10 16 N/A
8:51 pm 20:51 Cloudy 40 4.4 35 1.7 83 83 W 8 13 30.04 1017 10 16 N/A
9:51 pm 21:51 Cloudy 38 3.3 36 2.2 93 93 WSW 6 9 30.06 1018 10 16 N/A
10:51 pm 22:51 Cloudy 37 2.8 35 1.7 93 93 ESE 3 6 30.08 1019 10 16 N/A
11:51 pm 23:51 Cloudy 37 2.8 35 1.7 93 93 N N/A 30.08 1019 10 16 N/A

Powered by AerisWeather